sat.trackr.live / text

‹ back to catalog

STARLINK-4684

NORAD 53595 · 2022-104H

PAYLOAD ACTIVE UNKNOWN

§ Identity

Operator
Country
US
Launch date
2022-08-28
Launch site
AFETR
Launch vehicle
Mass (kg)
RCS (m²)

Purposes: comms

External: N2YO · Heavens-Above · Gunter

§ Orbital elements

Epoch: 2026-09-19T22:11:56.790240Z

Period
94.01 min
Inclination
53.1595°
Eccentricity
0.0001189
Mean motion
15.31700773 rev/d
Perigee alt
469.9 km
Apogee alt
471.6 km
Semi-major
6,848.9 km
B*
3.5282e-5
RAAN
78.4794°
Arg perigee
87.6390°
Mean anomaly
272.4748°
Rev number
22,545

§ Raw data

STARLINK-46841 53595U 22104H   26262.92496285  .00000730  00000+0  35282-4 0  99922 53595  53.1595  78.4794 0001189  87.6390 272.4748 15.31700773225454

JSON: /api/v1/satellites/53595 · /tle

For live sub-satellite position, see the globe view (requires WebGL).

§ Visibility from observer

Set your observer location to see the next 7 days of passes ≥ 10°. The values pass through the URL so the page stays shareable.

No JS? Fill the form by hand. The geolocation button needs JavaScript.